[[{"header":{"parameterUnit":"m.s-1","parameterCategory":1,"la1":30.2991,"la2":30.254,"lo1":-89.0895,"lo2":-89.0444,"dy":0.0017,"dx":0.0017,"nx":28,"ny":28,"refTime":"2024-04-08T21:00:00:Z","depth":0,"parameterNumber":2,"parameterNumberName":"U-component_of_WINDS"},"data":[0,0,0,0,0,0,0,0,0,0,0,0,0,0,0,0,0,0,0,0,0,0,0,0,0,0,0,0,0,0,0,0,0,0,0,0,0,0,0,0,0,0,0,0,0,0,0,0,0,0,0,0,0,0,0,0,0,0,-6.0266,-6.0267,0,-6.0354,-6.0355,-6.0356,-6.0295,-6.0292,-6.0289,-6.0287,-6.0374,-6.0378,-6.0383,0,0,0,0,0,0,0,0,0,0,0,0,0,-6.0043,-6.0048,-6.0266,-6.0267,-6.0268,-6.0354,-6.0355,-6.0356,-6.0295,-6.0292,-6.0289,-6.0285,-6.0372,-6.0378,-6.0384,0,0,0,0,0,0,0,0,0,0,0,0,0,-6.0136,-6.0049,-6.0265,-6.0248,-6.0247,-6.0353,-6.0355,-6.0356,-6.0296,-6.0292,-6.0288,-6.0284,-6.037,-6.0377,-6.0384,-6.0511,0,0,-6.0407,-6.041,0,0,0,0,0,0,0,0,-6.0131,-6.0145,-6.0249,-6.0249,-6.0249,-6.0309,-6.0308,-6.0408,-6.0297,-6.0277,-6.0287,-6.0282,-6.0355,-6.0363,-6.0389,-6.0515,-6.0519,-6.0407,-6.0412,-6.0415,-6.0417,0,0,0,0,0,0,0,-6.0125,-6.014,-6.03,-6.0251,-6.0251,-6.0235,-6.0244,-6.0327,-6.0338,-6.0279,-6.0275,-6.0286,-6.0354,-6.0382,-6.039,-6.052,-6.0407,-6.0414,-6.0418,-6.0421,-6.0756,-6.0761,0,0,0,0,0,0,-6.012,-6.0135,-6.0298,-6.0303,-6.0179,-6.0243,-6.0252,-6.0294,-6.0337,-6.034,-6.0289,-6.0283,-6.0372,-6.0382,-6.0393,-6.0544,-6.0415,-6.0422,-6.0426,-6.0752,-6.0757,-6.0762,0,0,0,0,0,0,-6.0116,-6.0135,-6.0294,-6.0218,-6.0237,-6.0251,-6.0298,-6.0298,-6.0325,-6.0345,-6.0347,-6.0316,-6.0369,-6.0383,-6.0483,-6.0546,-6.0425,-6.0431,-6.0746,-6.0753,-6.076,-6.0848,0,0,0,0,0,0,-6.011,-6.0134,-6.0183,-6.022,-6.0242,-6.0383,-6.0302,-6.0302,-6.0339,-6.0331,-6.037,-6.0373,-6.0367,-6.0472,-6.049,-6.0554,-6.0437,-6.0741,-6.0749,-6.0758,-6.0839,-6.0857,-6.0872,0,0,0,0,0,-6.0102,-6.0203,-6.0185,-6.0205,-6.0303,-6.0387,-6.0399,-6.039,-6.0344,-6.0393,-6.0406,-6.0372,-6.0538,-6.0483,-6.0503,-6.057,-6.0736,-6.0747,-6.0757,-6.0832,-6.0853,-6.0871,0,0,0,0,0,0,-6.0171,-6.0208,-6.0188,-6.0305,-6.0343,-6.0376,-6.0437,-6.0414,-6.0465,-6.0455,-6.0442,-6.0452,-6.0556,-6.0573,-6.0512,-6.0696,-6.0629,-6.0644,-6.068,-6.07,-6.0716,-6.0709,-6.0443,0,0,0,0,0,-6.0201,-6.0266,-6.0294,-6.0394,-6.0415,-6.0423,-6.0459,-6.045,-6.0489,-6.0504,-6.0524,-6.0563,-6.0623,-6.0663,-6.072,-6.0843,-6.085,-6.0899,-6.0915,-6.0929,-6.094,-6.1006,-6.1028,-6.0796,-6.0796,-6.0795,0,0,-6.0261,-6.0289,-6.0331,-6.0409,-6.0438,-6.0505,-6.0437,-6.0511,-6.0561,-6.0515,-6.061,-6.0627,-6.0669,-6.0781,-6.0831,-6.0798,-6.1007,-6.0942,-6.0952,-6.0956,-6.1019,-6.1041,-6.106,-6.0803,-6.0801,-6.08,0,0,-6.0405,-6.0433,-6.052,-6.0551,-6.0596,-6.0601,-6.0622,-6.0659,-6.0669,-6.0765,-6.0732,-6.0791,-6.0896,-6.0927,-6.0957,-6.1116,-6.1086,-6.1135,-6.1219,-6.1283,-6.1302,-6.1318,-6.1373,-6.1393,-6.1147,-6.1148,-6.1148,0,-6.0473,-6.0574,-6.0567,-6.0644,-6.0679,-6.0643,-6.073,-6.076,-6.0821,-6.0846,-6.081,-6.0941,-6.0967,-6.1085,-6.1125,-6.115,-6.1173,-6.1129,-6.13,-6.1316,-6.1331,-6.1383,-6.1404,-6.1153,-6.1153,-6.1152,-6.1151,0,-6.0656,-6.0727,-6.0792,-6.0853,-6.0896,-6.0978,-6.0982,-6.1026,-6.1014,-6.1023,-6.1122,-6.1152,-6.1215,-6.1243,-6.1231,-6.136,-6.1338,-6.1302,-6.1234,-6.1359,-6.1408,-6.1428,-6.1161,-6.1159,-6.1157,-6.1156,0,0,-6.0843,-6.0901,-6.0924,-6.0952,-6.1,-6.1055,-6.1136,-6.1198,-6.1236,-6.128,-6.1347,-6.1438,-6.1405,-6.1438,-6.143,-6.1487,-6.161,-6.1443,-6.1444,-6.1471,-6.1753,-6.1779,-6.1802,-6.1593,-6.1596,-6.1599,-6.1749,0,-6.0988,-6.1129,-6.1125,-6.1256,-6.1321,-6.129,-6.136,-6.1397,-6.1409,-6.1465,-6.1478,-6.1542,-6.1494,-6.1514,-6.1569,-6.1584,-6.1666,-6.1573,-6.1652,-6.1655,-6.164,-6.1828,-6.1855,-6.1995,-6.1768,-6.1772,-6.1774,0,-6.1175,-6.1227,-6.1364,-6.1404,-6.1431,-6.1495,-6.1552,-6.1608,-6.1649,-6.1654,-6.1693,-6.1677,-6.1758,-6.1692,-6.1804,-6.174,-6.1773,-6.1786,-6.1791,-6.1795,-6.172,-6.1836,-6.2039,-6.2059,-6.1804,-6.1802,-6.18,0,-6.1295,-6.1399,-6.1495,-6.152,-6.1569,-6.1615,-6.1637,-6.1675,-6.1713,-6.1764,-6.1789,-6.1848,-6.188,-6.1926,-6.1926,-6.1878,-6.2039,-6.1973,-6.2044,-6.2044,-6.2076,-6.2073,-6.2285,-6.2102,-6.2102,-6.2101,-6.2101,0,-6.1455,-6.154,-6.155,-6.1609,-6.1703,-6.1699,-6.1793,-6.1811,-6.1846,-6.1907,-6.1884,-6.1942,-6.194,-6.1999,-6.2,-6.2091,-6.2106,-6.2111,-6.211,-6.2112,-6.2111,-6.2131,-6.212,-6.2107,-6.2106,-6.2105,-6.2104,0,-6.1604,-6.1614,-6.1716,-6.1755,-6.1767,-6.1835,-6.1868,-6.1924,-6.1935,-6.2013,-6.2031,-6.2048,-6.2116,-6.2122,-6.2201,-6.2201,-6.2312,-6.2302,-6.2298,-6.2295,-6.2365,-6.2358,-6.2595,-6.2625,-6.2425,-6.2427,-6.2428,0,-6.1704,-6.1769,-6.1816,-6.1856,-6.1882,-6.1946,-6.1986,-6.1985,-6.2027,-6.2081,-6.213,-6.2197,-6.2249,-6.236,-6.2379,-6.2439,-6.2428,-6.2508,-6.2437,-6.2437,-6.2427,-6.2422,-6.2428,-6.252,-6.2522,-6.2524,-6.2526,0,-6.1881,-6.1883,-6.1941,-6.2002,-6.205,-6.2098,-6.2142,-6.2176,-6.2181,-6.223,-6.23,-6.2341,-6.2423,-6.2489,-6.2549,-6.2571,-6.2549,-6.2549,-6.2568,-6.2569,-6.2563,-6.2565,-6.2333,-6.2542,-6.254,-6.2539,-6.2538,-6.2538,-6.2006,-6.2063,-6.2105,-6.2171,-6.2205,-6.2248,-6.2302,-6.2321,-6.238,-6.2446,-6.2443,-6.2521,-6.2562,-6.264,-6.2668,-6.2728,-6.2701,-6.2729,-6.2736,-6.2742,-6.2749,-6.2557,-6.2739,-6.2739,-6.2738,-6.2738,-6.2738,0,-6.218,-6.2206,-6.2268,-6.2331,-6.2383,-6.2361,-6.2409,-6.2454,-6.2523,-6.2564,-6.2617,-6.2698,-6.2763,-6.2788,-6.2851,-6.2894,-6.2886,-6.2911,-6.2906,-6.2911,-6.277,-6.2746,-6.2917,-6.2917,-6.2916,-6.2916,-6.2916,-6.2916,-6.2276,-6.237,-6.2378,-6.2489,-6.2514,-6.2591,-6.262,-6.2659,-6.2692,-6.2784,-6.2838,-6.2855,-6.289,-6.2956,-6.3014,-6.3019,-6.3043,-6.3072,-6.3073,-6.2939,-6.2921,-6.2904,-6.2881,-6.3077,-6.3077,-6.3209,-6.321,-6.3211]},{"header":{"parameterUnit":"m.s-1","parameterCategory":1,"la1":30.2991,"la2":30.254,"lo1":-89.0895,"lo2":-89.0444,"dy":0.0017,"dx":0.0017,"nx":28,"ny":28,"refTime":"2024-04-08T21:00:00:Z","depth":0,"parameterNumber":3,"parameterNumberName":"V-component_of_WINDS"},"data":[0,0,0,0,0,0,0,0,0,0,0,0,0,0,0,0,0,0,0,0,0,0,0,0,0,0,0,0,0,0,0,0,0,0,0,0,0,0,0,0,0,0,0,0,0,0,0,0,0,0,0,0,0,0,0,0,0,0,2.6639,2.6639,0,2.6658,2.6659,2.6659,2.6653,2.6652,2.6652,2.6651,2.667,2.667,2.6671,0,0,0,0,0,0,0,0,0,0,0,0,0,2.6595,2.6595,2.6639,2.6639,2.6639,2.6658,2.6659,2.6659,2.6653,2.6652,2.6652,2.6651,2.6669,2.667,2.6671,0,0,0,0,0,0,0,0,0,0,0,0,0,2.6614,2.6596,2.6639,2.6638,2.6639,2.6658,2.6659,2.6659,2.6653,2.6652,2.6652,2.6651,2.6669,2.667,2.6671,2.6692,0,0,2.6675,2.6676,0,0,0,0,0,0,0,0,2.6613,2.6615,2.6638,2.6638,2.6639,2.6653,2.665,2.667,2.6653,2.6647,2.6651,2.6651,2.6664,2.6666,2.6671,2.6693,2.6693,2.6676,2.6676,2.6677,2.6677,0,0,0,0,0,0,0,2.6611,2.6615,2.6646,2.6639,2.6639,2.6637,2.6639,2.6654,2.6659,2.6648,2.6647,2.665,2.6664,2.667,2.6671,2.6694,2.6676,2.6677,2.6677,2.6678,2.6735,2.6736,0,0,0,0,0,0,2.661,2.6614,2.6646,2.6647,2.6624,2.6638,2.6641,2.6649,2.6659,2.666,2.6651,2.665,2.6668,2.667,2.6672,2.6698,2.6677,2.6678,2.6679,2.6735,2.6736,2.6736,0,0,0,0,0,0,2.6609,2.6613,2.6645,2.663,2.6634,2.664,2.6649,2.6649,2.6655,2.6661,2.6662,2.6655,2.6667,2.667,2.6688,2.6699,2.6679,2.668,2.6734,2.6735,2.6736,2.675,0,0,0,0,0,0,2.6608,2.6613,2.6621,2.663,2.6635,2.6661,2.6649,2.665,2.6657,2.6656,2.6665,2.6666,2.6667,2.6686,2.6689,2.67,2.6681,2.6733,2.6734,2.6736,2.6748,2.6751,2.6753,0,0,0,0,0,2.6606,2.6623,2.6621,2.6625,2.6645,2.6661,2.6664,2.6665,2.6658,2.6666,2.6671,2.6666,2.6697,2.6688,2.6691,2.6703,2.6732,2.6734,2.6736,2.6747,2.6751,2.6753,0,0,0,0,0,0,2.6613,2.6624,2.6622,2.6642,2.6651,2.666,2.667,2.6668,2.6678,2.6677,2.6677,2.6679,2.6698,2.6702,2.6691,2.6724,2.6713,2.6716,2.6721,2.6724,2.6727,2.6726,2.6682,0,0,0,0,0,2.6617,2.6629,2.6638,2.6655,2.666,2.6664,2.6671,2.6672,2.6681,2.6684,2.6689,2.6697,2.6709,2.6717,2.6728,2.6749,2.6751,2.6758,2.6761,2.6763,2.6766,2.6779,2.6783,2.6742,2.6742,2.6742,0,0,2.6624,2.6632,2.664,2.6657,2.6663,2.6677,2.6667,2.6681,2.6691,2.6686,2.6703,2.6708,2.6717,2.6737,2.6746,2.6741,2.6777,2.6765,2.6767,2.6768,2.6781,2.6785,2.6788,2.6743,2.6743,2.6743,0,0,2.6646,2.6652,2.6668,2.6676,2.6687,2.669,2.6694,2.6704,2.6707,2.6725,2.6722,2.6733,2.6753,2.6761,2.6767,2.6793,2.679,2.6796,2.6811,2.6823,2.6827,2.683,2.6841,2.6844,2.6799,2.6799,2.6799,0,2.6654,2.6674,2.6676,2.6692,2.6699,2.6696,2.6713,2.672,2.6733,2.6739,2.6733,2.6759,2.6765,2.6788,2.6794,2.6799,2.6804,2.6796,2.6826,2.6829,2.6832,2.6842,2.6846,2.68,2.6799,2.6799,2.6799,0,2.6685,2.6699,2.671,2.6726,2.6735,2.675,2.6755,2.6763,2.6763,2.6768,2.6787,2.6794,2.6807,2.6812,2.6811,2.6835,2.6832,2.6826,2.6816,2.6837,2.6847,2.685,2.6801,2.68,2.68,2.68,0,0,2.671,2.6728,2.6732,2.674,2.6753,2.6764,2.6779,2.6794,2.6802,2.6811,2.6825,2.6843,2.6839,2.6846,2.6846,2.6857,2.688,2.685,2.685,2.6857,2.6908,2.6914,2.6918,2.6877,2.6878,2.6879,2.6908,0,2.6734,2.6763,2.6766,2.6792,2.6806,2.6804,2.6818,2.6827,2.6832,2.6844,2.6849,2.6862,2.6854,2.6859,2.687,2.6875,2.689,2.6872,2.6891,2.6892,2.689,2.6923,2.6928,2.6956,2.6912,2.6912,2.6913,0,2.6765,2.6778,2.6806,2.6819,2.6825,2.6837,2.6852,2.6863,2.6874,2.6877,2.6886,2.6885,2.6902,2.6891,2.6914,2.6902,2.691,2.6913,2.6914,2.6917,2.6904,2.6928,2.6964,2.6969,2.6919,2.6918,2.6918,0,2.6783,2.6807,2.6827,2.6834,2.6849,2.6858,2.6865,2.6875,2.6884,2.6896,2.6903,2.6916,2.6924,2.6934,2.6937,2.6928,2.6961,2.6949,2.6964,2.6964,2.6972,2.6972,2.7011,2.6975,2.6975,2.6974,2.6974,0,2.681,2.6827,2.6836,2.6848,2.6868,2.6872,2.6891,2.6897,2.6907,2.6921,2.6919,2.6932,2.6935,2.6948,2.695,2.6971,2.6973,2.6976,2.6977,2.6977,2.6977,2.6983,2.6982,2.6976,2.6975,2.6975,2.6975,0,2.6833,2.6839,2.6862,2.6875,2.6879,2.6893,2.6905,2.6917,2.6922,2.6939,2.6944,2.6951,2.6967,2.6971,2.6989,2.6991,2.7016,2.7013,2.7012,2.7013,2.7028,2.7027,2.7074,2.7081,2.7038,2.7039,2.7039,0,2.685,2.6864,2.688,2.689,2.6897,2.6913,2.6923,2.6927,2.6937,2.6952,2.6963,2.6979,2.6992,2.7018,2.7025,2.7039,2.7039,2.7054,2.7041,2.7041,2.7041,2.7041,2.7043,2.7057,2.7057,2.7058,2.7058,0,2.6881,2.6884,2.6899,2.6916,2.6928,2.6941,2.6953,2.6961,2.6967,2.6979,2.6996,2.7007,2.7027,2.7043,2.7058,2.7065,2.7063,2.7062,2.7067,2.7068,2.7067,2.707,2.7021,2.7061,2.7061,2.7061,2.706,2.706,2.6903,2.6916,2.693,2.6947,2.6957,2.697,2.6983,2.699,2.7005,2.7023,2.7024,2.7043,2.7055,2.7075,2.7083,2.7098,2.7093,2.7099,2.7101,2.7103,2.7105,2.7064,2.71,2.71,2.71,2.71,2.71,0,2.6935,2.6945,2.696,2.6979,2.6993,2.6991,2.7005,2.7016,2.7034,2.7046,2.706,2.708,2.7097,2.7105,2.7122,2.7132,2.7132,2.7137,2.7136,2.7138,2.7108,2.7103,2.7137,2.7137,2.7137,2.7137,2.7137,2.7137,2.6954,2.6977,2.6982,2.701,2.7019,2.7039,2.7047,2.7059,2.7069,2.7093,2.7107,2.7113,2.7124,2.7141,2.7156,2.7159,2.7165,2.7171,2.7173,2.7144,2.714,2.7137,2.7132,2.7172,2.7172,2.7202,2.7203,2.7203]}]]